EW5967 Weather Reports


time (UTC)temp
F
wind
direction
speed
knots
gust
knots
rain 1hr
in
rain 24hr
in
rain mn
in
humidity
%
barometer
mb
20260502163111 73 70 0.0 4.3 0.00 0.00 0.00 14 1013.5
20260502162512 73 74 1.7 6.1 0.00 0.00 0.00 14 1013.5
20260502162014 73 83 2.6 7.0 0.00 0.00 0.00 14 1013.5
20260502161509 73 91 2.6 7.0 0.00 0.00 0.00 14 1013.4
20260502161009 72 101 0.0 7.0 0.00 0.00 0.00 14 1013.4
20260502160509 72 96 2.6 7.0 0.00 0.00 0.00 14 1013.4
20260502152003 72 342 0.0 1.7 0.00 0.00 0.00 16 1013.2
20260502151502 72 342 0.0 0.0 0.00 0.00 0.00 15 1013.1
20260502151002 72 342 0.0 0.0 0.00 0.00 0.00 16 1013.1
20260502150600 71 342 0.0 0.9 0.00 0.00 0.00 15 1013.0
20260502130544 63 342 0.0 0.9 0.00 0.00 0.00 17 1012.2
20260502123541 64 342 0.9 2.6 0.00 0.00 0.00 16 1011.8
20260502123041 64 342 0.9 2.6 0.00 0.00 0.00 16 1011.8
20260502122541 64 342 0.9 2.6 0.00 0.00 0.00 16 1011.9
20260502122040 63 342 0.9 2.6 0.00 0.00 0.00 16 1011.8
20260502121540 63 342 0.9 2.6 0.00 0.00 0.00 16 1011.7
20260502121042 63 342 0.9 2.6 0.00 0.00 0.00 16 1011.8
20260502120540 63 342 0.0 1.7 0.00 0.00 0.00 16 1011.8
20260502115542 64 342 0.0 1.7 0.00 0.00 0.00 15 1011.7
20260502115038 64 342 0.0 0.9 0.00 0.00 0.00 15 1011.8
20260502114538 64 342 0.0 2.6 0.00 0.00 0.00 15 1011.9
20260502114035 65 342 0.9 2.6 0.00 0.00 0.00 15 1011.9
20260502113536 65 342 0.0 1.7 0.00 0.00 0.00 15 1011.8
20260502113035 65 342 0.9 2.6 0.00 0.00 0.00 15 1011.7
20260502112535 65 342 0.9 2.6 0.00 0.00 0.00 15 1011.7
20260502112034 65 342 0.0 2.6 0.00 0.00 0.00 15 1011.8
20260502111602 65 342 0.0 2.6 0.00 0.00 0.00 15 1011.7
20260502111033 65 342 0.9 2.6 0.00 0.00 0.00 15 1011.7
20260502110533 65 342 0.0 3.5 0.00 0.00 0.00 15 1011.7
20260502110034 65 342 0.9 3.5 0.00 0.00 0.00 15 1011.8
20260502105536 65 343 0.9 2.6 0.00 0.00 0.00 15 1011.7
20260502105031 65 343 0.9 2.6 0.00 0.00 0.00 15 1011.7
20260502104540 65 343 0.9 1.7 0.00 0.00 0.00 15 1011.7
20260502104031 65 343 0.0 1.7 0.00 0.00 0.00 14 1011.7
20260502103531 65 343 0.0 1.7 0.00 0.00 0.00 14 1011.7
20260502103035 65 343 0.0 1.7 0.00 0.00 0.00 15 1011.7
20260502102531 65 343 0.0 2.6 0.00 0.00 0.00 14 1011.7
20260502102030 66 343 0.0 2.6 0.00 0.00 0.00 14 1011.6
20260502101531 66 343 0.0 1.7 0.00 0.00 0.00 14 1011.7
20260502101029 66 343 0.0 2.6 0.00 0.00 0.00 14 1011.7
20260502100528 66 343 0.9 3.5 0.00 0.00 0.00 14 1011.7
20260502091522 67 345 0.9 4.3 0.00 0.00 0.00 13 1011.9
20260502091022 67 355 0.9 2.6 0.00 0.00 0.00 13 1011.9
20260502090521 67 355 0.0 2.6 0.00 0.00 0.00 13 1011.9
20260502071507 68 10 0.0 0.9 0.00 0.00 0.00 12 1012.1
20260502071008 68 10 0.0 2.6 0.00 0.00 0.00 12 1012.0
20260502070507 68 10 0.0 2.6 0.00 0.00 0.00 12 1012.0
20260502070013 69 10 0.0 2.6 0.00 0.00 0.00 12 1012.0
20260502065506 69 10 0.0 3.5 0.00 0.00 0.00 12 1012.0
20260502065007 69 10 0.0 3.5 0.00 0.00 0.00 12 1012.0
20260502064515 69 10 0.0 5.2 0.00 0.00 0.00 12 1011.9
20260502064005 69 10 2.6 5.2 0.00 0.00 0.00 12 1011.9
20260502063504 69 348 0.0 3.5 0.00 0.00 0.00 12 1011.9
20260502063006 69 355 0.9 4.3 0.00 0.00 0.00 12 1011.9
20260502062503 69 355 1.7 4.3 0.00 0.00 0.00 12 1011.9
20260502062006 69 346 0.9 4.3 0.00 0.00 0.00 12 1011.8
20260502061502 70 319 0.0 4.3 0.00 0.00 0.00 12 1011.8
20260502061002 70 14 0.0 7.0 0.00 0.00 0.00 12 1011.7
20260502060502 70 14 1.7 8.7 0.00 0.00 0.00 12 1011.7
20260502060002 70 80 3.5 8.7 0.00 0.00 0.00 12 1011.6
20260502055502 70 26 0.9 7.0 0.00 0.00 0.00 12 1011.6
20260502055002 70 25 1.7 7.8 0.00 0.00 0.00 12 1011.5
20260502054501 70 22 1.7 5.2 0.00 0.00 0.00 12 1011.5
20260502054002 70 30 1.7 5.2 0.00 0.00 0.00 12 1011.5
20260502053500 71 22 1.7 7.0 0.00 0.00 0.00 12 1011.5
20260502053002 71 15 2.6 8.7 0.00 0.00 0.00 12 1011.5
20260502052502 71 42 5.2 8.7 0.00 0.00 0.00 12 1011.5
20260502052104 71 31 2.6 7.8 0.00 0.00 0.00 12 1011.4
20260502051604 71 321 0.0 3.5 0.00 0.00 0.00 12 1011.2
20260502051100 71 321 0.9 3.5 0.00 0.00 0.00 12 1011.1
20260502050603 71 317 0.9 3.5 0.00 0.00 0.00 12 1011.1
20260502050101 71 316 0.0 4.3 0.00 0.00 0.00 12 1011.1
20260502045559 72 315 0.9 4.3 0.00 0.00 0.00 12 1011.0
20260502045058 72 317 0.9 4.3 0.00 0.00 0.00 12 1011.0
20260502044558 72 318 0.9 4.3 0.00 0.00 0.00 12 1010.8
20260502044058 72 320 0.9 4.3 0.00 0.00 0.00 12 1010.8
20260502043559 72 320 0.0 4.3 0.00 0.00 0.00 12 1010.8
20260502043119 72 321 0.0 3.5 0.00 0.00 0.00 12 1010.7
20260502042558 72 321 1.7 4.3 0.00 0.00 0.00 11 1010.7
20260502042058 72 320 1.7 3.5 0.00 0.00 0.00 11 1010.6
20260502041558 72 322 0.0 3.5 0.00 0.00 0.00 12 1010.5
20260502041057 72 321 0.9 4.3 0.00 0.00 0.00 12 1010.5
20260502040557 72 335 1.7 4.3 0.00 0.00 0.00 12 1010.4
20260502040057 72 346 0.0 2.6 0.00 0.00 0.00 12 1010.4
20260502035557 72 346 0.9 3.5 0.00 0.00 0.00 12 1010.3
20260502035057 72 347 0.9 4.3 0.00 0.00 0.00 12 1010.1
20260502034556 72 5 0.0 4.3 0.00 0.00 0.00 12 1010.1
20260502034056 73 5 0.9 7.0 0.00 0.00 0.00 13 1010.1
20260502033555 73 5 0.9 7.0 0.00 0.00 0.00 13 1009.9
20260502033056 73 325 0.0 2.6 0.00 0.00 0.00 13 1009.9
20260502032555 73 325 0.0 2.6 0.00 0.00 0.00 12 1009.7
20260502032055 73 325 0.0 2.6 0.00 0.00 0.00 12 1009.6
20260502031557 73 325 0.9 3.5 0.00 0.00 0.00 12 1009.5
20260502031055 74 325 0.0 4.3 0.00 0.00 0.00 12 1009.4
20260502030555 74 325 0.9 4.3 0.00 0.00 0.00 12 1009.3
20260502030055 74 327 0.9 2.6 0.00 0.00 0.00 12 1009.3
20260502025554 74 327 0.0 3.5 0.00 0.00 0.00 12 1009.2
20260502025054 74 326 0.9 3.5 0.00 0.00 0.00 12 1009.2
20260502024554 74 330 0.0 4.3 0.00 0.00 0.00 12 1009.1
20260502024053 74 330 0.9 5.2 0.00 0.00 0.00 12 1009.0
20260502023555 74 331 1.7 5.2 0.00 0.00 0.00 12 1008.9
20260502023057 75 333 0.9 5.2 0.00 0.00 0.00 12 1008.9
20260502022554 75 337 0.9 4.3 0.00 0.00 0.00 12 1008.9
20260502022052 75 346 1.7 4.3 0.00 0.00 0.00 12 1008.9
20260502021553 75 360 1.7 5.2 0.00 0.00 0.00 12 1008.8
20260502021054 75 11 1.7 5.2 0.00 0.00 0.00 12 1008.8
20260502020553 75 336 0.9 5.2 0.00 0.00 0.00 12 1008.8
20260502020053 75 329 1.7 7.0 0.00 0.00 0.00 12 1008.8
20260502015552 76 350 2.6 7.0 0.00 0.00 0.00 12 1008.7
20260502015053 76 348 1.7 5.2 0.00 0.00 0.00 12 1008.7
20260502014557 76 321 0.9 5.2 0.00 0.00 0.00 12 1008.6
20260502014051 76 5 0.9 5.2 0.00 0.00 0.00 12 1008.6
20260502013555 77 351 1.7 7.8 0.00 0.00 0.00 12 1008.6
20260502013057 77 331 2.6 7.8 0.00 0.00 0.00 11 1008.6
20260502012551 78 9 1.7 8.7 0.00 0.00 0.00 11 1008.6
20260502012051 77 322 2.6 8.7 0.00 0.00 0.00 11 1008.6
20260502011605 77 5 2.6 7.0 0.00 0.00 0.00 11 1008.5
20260502011050 78 347 1.7 4.3 0.00 0.00 0.00 11 1008.5
20260502010550 78 31 2.6 7.8 0.00 0.00 0.00 11 1008.5
20260502010050 78 326 0.9 7.0 0.00 0.00 0.00 11 1008.6
20260502005550 78 15 3.5 9.6 0.00 0.00 0.00 11 1008.6
20260502005052 78 314 3.5 9.6 0.00 0.00 0.00 11 1008.5
20260502004600 78 298 1.7 9.6 0.00 0.00 0.00 11 1008.5
20260502004048 78 318 4.3 10.4 0.00 0.00 0.00 11 1008.5
20260502003548 78 57 3.5 10.4 0.00 0.00 0.00 11 1008.5
20260502003047 79 20 3.5 10.4 0.00 0.00 0.00 11 1008.5
20260502002547 79 332 3.5 11.3 0.00 0.00 0.00 11 1008.5
20260502002147 79 355 4.3 10.4 0.00 0.00 0.00 11 1008.5
20260502001547 78 355 4.3 10.4 0.00 0.00 0.00 11 1008.5
20260502001047 77 5 2.6 13.0 0.00 0.00 0.00 11 1008.6
20260502000549 78 14 6.1 13.0 0.00 0.00 0.00 11 1008.6
20260502000105 78 34 7.0 11.3 0.00 0.00 0.00 11 1008.6
20260501235546 78 53 3.5 9.6 0.00 0.00 0.00 12 1008.5
20260501235049 78 53 1.7 11.3 0.00 0.00 0.00 11 1008.5
20260501234545 78 347 4.3 11.3 0.00 0.00 0.00 11 1008.6
20260501234044 78 37 4.3 11.3 0.00 0.00 0.00 11 1008.6
20260501233544 78 38 3.5 11.3 0.00 0.00 0.00 11 1008.6
20260501233044 78 9 4.3 11.3 0.00 0.00 0.00 11 1008.6
20260501232546 78 41 4.3 10.4 0.00 0.00 0.00 11 1008.6
20260501232048 78 46 5.2 11.3 0.00 0.00 0.00 11 1008.6
20260501231550 78 52 6.1 13.0 0.00 0.00 0.00 11 1008.6
20260501231043 78 23 7.8 13.0 0.00 0.00 0.00 11 1008.6
20260501230544 78 15 4.3 7.8 0.00 0.00 0.00 11 1008.6
20260501230042 79 355 1.7 8.7 0.00 0.00 0.00 11 1008.6
20260501225541 78 12 3.5 11.3 0.00 0.00 0.00 11 1008.8
20260501225040 78 36 4.3 16.5 0.00 0.00 0.00 11 1008.7
20260501224541 80 11 5.2 16.5 0.00 0.00 0.00 11 1008.9
20260501224036 79 10 1.7 10.4 0.00 0.00 0.00 12 1008.9
20260501223538 78 24 5.2 10.4 0.00 0.00 0.00 12 1008.9
20260501223036 78 28 1.7 11.3 0.00 0.00 0.00 12 1009.0
20260501222535 79 10 2.6 11.3 0.00 0.00 0.00 12 1009.0
20260501222034 78 325 1.7 13.0 0.00 0.00 0.00 13 1009.1
20260501221542 78 355 3.5 8.7 0.00 0.00 0.00 13 1009.1
20260501221036 78 28 3.5 12.2 0.00 0.00 0.00 13 1009.1
20260501220532 79 39 3.5 12.2 0.00 0.00 0.00 13 1009.3
20260501220041 78 11 4.3 12.2 0.00 0.00 0.00 13 1009.4
20260501215532 79 5 7.0 11.3 0.00 0.00 0.00 13 1009.4
20260501215031 79 37 7.0 13.0 0.00 0.00 0.00 13 1009.4
20260501214531 78 77 1.7 10.4 0.00 0.00 0.00 14 1009.4
20260501214032 78 11 4.3 8.7 0.00 0.00 0.00 13 1009.5
20260501213529 78 16 1.7 8.7 0.00 0.00 0.00 14 1009.6
20260501213035 78 360 0.9 7.0 0.00 0.00 0.00 14 1009.6
20260501212529 79 323 1.7 11.3 0.00 0.00 0.00 14 1009.7
20260501212029 79 348 4.3 11.3 0.00 0.00 0.00 14 1009.9
20260501211527 78 14 3.5 7.8 0.00 0.00 0.00 15 1009.8
20260501211026 77 44 1.7 11.3 0.00 0.00 0.00 15 1009.8
20260501210526 78 13 7.0 11.3 0.00 0.00 0.00 15 1009.9
20260501210026 78 46 4.3 12.2 0.00 0.00 0.00 15 1009.9
20260501205628 78 9 7.8 12.2 0.00 0.00 0.00 14 1010.1
20260501205025 78 351 4.3 11.3 0.00 0.00 0.00 15 1010.0
20260501204524 77 257 0.9 7.0 0.00 0.00 0.00 15 1010.0
20260501204022 77 69 0.9 5.2 0.00 0.00 0.00 15 1010.1
20260501203522 76 31 0.9 7.0 0.00 0.00 0.00 16 1010.2
20260501203023 76 78 0.9 5.2 0.00 0.00 0.00 16 1010.2
20260501202521 76 242 0.9 7.8 0.00 0.00 0.00 16 1010.3
20260501202022 76 100 0.9 7.8 0.00 0.00 0.00 15 1010.4
20260501201521 76 25 1.7 5.2 0.00 0.00 0.00 16 1010.4
20260501201021 75 314 0.9 4.3 0.00 0.00 0.00 17 1010.4
20260501200527 75 34 1.7 8.7 0.00 0.00 0.00 16 1010.5
20260501200020 75 61 3.5 8.7 0.00 0.00 0.00 17 1010.6
20260501195520 75 150 3.5 7.8 0.00 0.00 0.00 16 1010.6
20260501195021 76 173 1.7 6.1 0.00 0.00 0.00 16 1010.7
20260501194520 77 302 0.9 7.8 0.00 0.00 0.00 16 1010.7
20260501194018 76 98 2.6 8.7 0.00 0.00 0.00 16 1010.8
20260501193518 75 33 3.5 8.7 0.00 0.00 0.00 16 1010.8
20260501193032 76 92 3.5 7.8 0.00 0.00 0.00 16 1010.9
20260501192518 75 96 3.5 9.6 0.00 0.00 0.00 16 1011.0
20260501192017 75 63 3.5 9.6 0.00 0.00 0.00 17 1011.0
20260501191525 75 160 4.3 9.6 0.00 0.00 0.00 16 1011.1
20260501191017 75 136 3.5 9.6 0.00 0.00 0.00 16 1011.2
20260501190515 75 82 2.6 8.7 0.00 0.00 0.00 16 1011.3
20260501190042 75 118 4.3 8.7 0.00 0.00 0.00 16 1011.3
20260501185512 74 111 1.7 7.8 0.00 0.00 0.00 17 1011.3
20260501185012 74 81 1.7 7.0 0.00 0.00 0.00 17 1011.5
20260501184518 73 79 1.7 7.8 0.00 0.00 0.00 18 1011.5
20260501184014 73 75 2.6 7.8 0.00 0.00 0.00 18 1011.6
20260501183512 72 59 1.7 6.1 0.00 0.00 0.00 18 1011.6
20260501183019 72 57 1.7 6.1 0.00 0.00 0.00 18 1011.7
20260501182510 71 104 0.0 7.8 0.00 0.00 0.00 18 1011.7
20260501182010 72 91 2.6 7.8 0.00 0.00 0.00 18 1011.8
20260501181510 72 97 2.6 7.0 0.00 0.00 0.00 18 1011.8
20260501181010 72 57 2.6 4.3 0.00 0.00 0.00 18 1011.7
20260501180514 72 16 0.0 8.7 0.00 0.00 0.00 18 1011.8
20260501180010 72 98 3.5 8.7 0.00 0.00 0.00 18 1011.8
20260501175509 72 104 2.6 8.7 0.00 0.00 0.00 18 1011.7
20260501175009 72 51 1.7 7.8 0.00 0.00 0.00 18 1011.8
20260501174514 73 89 3.5 9.6 0.00 0.00 0.00 17 1011.8
20260501174008 73 75 6.1 9.6 0.00 0.00 0.00 18 1011.8
20260501173508 72 55 0.9 7.8 0.00 0.00 0.00 18 1011.8
20260501173008 72 55 3.5 7.8 0.00 0.00 0.00 17 1011.8
20260501172508 72 74 2.6 7.8 0.00 0.00 0.00 18 1011.8
20260501172007 72 5 3.5 7.8 0.00 0.00 0.00 17 1011.8
20260501171506 72 76 2.6 6.1 0.00 0.00 0.00 18 1011.8
20260501171005 72 24 2.6 7.8 0.00 0.00 0.00 18 1011.7
20260501170507 72 40 3.5 9.6 0.00 0.00 0.00 19 1011.8
20260501170005 72 77 3.5 9.6 0.00 0.00 0.00 18 1011.8
20260501165504 72 41 3.5 9.6 0.00 0.00 0.00 19 1011.8
20260501165004 71 96 1.7 5.2 0.00 0.00 0.00 19 1011.8
20260501164504 71 47 1.7 7.0 0.00 0.00 0.00 18 1011.8
20260501164002 71 107 3.5 7.0 0.00 0.00 0.00 18 1011.7
20260501163505 71 46 1.7 7.0 0.00 0.00 0.00 19 1011.7